Torna al catalogo

FSKL5695-13

AttivoRadioamatoreSSO
NORAD 64887·PAYLOAD·🇷🇺 Russia
Questo nome del satellite non è ancora stato confermato da fonti ufficiali.

Lanciato Jul 25, 2025 da Vostochny Cosmodrome

Loading…

Prossimi Passaggi (prossime 24 ore)

TLE

AggiornatoSource: Space-Track

Epoca: Sep 14, 2026, 14:45 UTC

1 64887U 25155M   26257.61501161  .00027809  00000-0  63593-3 0  9999
2 64887  97.4595 229.6386 0006132 171.2830 188.8525 15.42776331 94654

Traccia FSKL5695-13 in tempo reale con AllMySat

Download on the App Store